Weather History for Bentonville, AR

Change the Weather History Date:

Thursday, November 17, 2011

  Actual Average Record
Temperature  
Mean Temperature 2 °C -  
Max Temperature 8 °C 13 °C 25 °C (1958)
Min Temperature -3 °C 1 °C -15 °C (1959)
Degree Days  
Heating Degree Days 29    
Moisture  
Dew Point -4 °C    
Average Humidity 67    
Maximum Humidity 100    
Minimum Humidity 34    
Precipitation  
Precipitation 0.00 mm - - ()
Sea Level Pressure  
Sea Level Pressure 1028 hPa    
Wind  
Wind Speed 6 km/h (SW)    
Max Wind Speed 13 km/h    
Max Gust Speed -    
Visibility 16 kilometers    
Events      
Averages and records for this station are not official NWS values.
T = Trace of Precipitation, MM = Missing Value Source: NWS Daily Summary

Daily Weather History Graph

Daily Weather History Graph

Search for Another Location

Airport:

Trip Planner

Search our weather history database for the weather conditions in past years. The results will help you decide how hot, cold, wet, or windy it might be!

Date:

Astronomy

Nov. 17, 2011 Rise Set
Actual Time 6:55 AM CST 5:07 PM CST
Civil Twilight 6:28 AM CST 5:34 PM CST
Nautical Twilight 5:57 AM CST 6:06 PM CST
Astronomical Twilight 5:26 AM CST 6:36 PM CST
Moon 11:24 PM CST (11/17) 12:08 PM CST (11/17)
Length of Visible Light 11h 06m
Length of Day
10h 11m
Waning Gibbous, 59% of the Moon is Illuminated
Nov 17
Waning Gibbous
Nov 18
Last Quarter
Nov 25
New
Dec 2
First Quarter
Dec 10
Full

Hourly Weather History & Observations

Time (CST) Temp. Windchill Dew Point Humidity Pressure Visibility Wind Dir Wind Speed Gust Speed Precip Events Conditions
12:15 AM 1.0 °C -2.4 °C -2.0 °C 81% 1027.7 hPa 16.1 km NW 11.1 km/h / 3.1 m/s - N/A   Clear
12:35 AM 0.0 °C -3.6 °C -2.0 °C 87% 1027.7 hPa 16.1 km NW 11.1 km/h / 3.1 m/s - N/A   Clear
12:55 AM 0.0 °C -3.6 °C -2.0 °C 87% 1027.7 hPa 16.1 km NW 11.1 km/h / 3.1 m/s - N/A   Clear
1:15 AM 0.0 °C -3.6 °C -2.0 °C 87% 1027.7 hPa 16.1 km NNW 11.1 km/h / 3.1 m/s - N/A   Clear
1:35 AM -1.0 °C -4.3 °C -3.0 °C 86% 1027.7 hPa 16.1 km NNW 9.3 km/h / 2.6 m/s - N/A   Clear
1:55 AM -1.0 °C -3.0 °C -3.0 °C 86% 1027.7 hPa 16.1 km NNW 5.6 km/h / 1.5 m/s - N/A   Clear
2:15 AM -1.0 °C -4.3 °C -3.0 °C 86% 1028.0 hPa 16.1 km North 9.3 km/h / 2.6 m/s - N/A   Clear
2:35 AM -1.0 °C -4.3 °C -3.0 °C 86% 1028.0 hPa 16.1 km North 9.3 km/h / 2.6 m/s - N/A   Clear
2:55 AM -1.0 °C -3.0 °C -3.0 °C 86% 1028.0 hPa 16.1 km NNW 5.6 km/h / 1.5 m/s - N/A   Clear
3:15 AM -1.0 °C -3.0 °C -3.0 °C 86% 1028.0 hPa 16.1 km NNW 5.6 km/h / 1.5 m/s - N/A   Clear
3:35 AM -1.0 °C - -3.0 °C 86% 1028.0 hPa 16.1 km Calm Calm - N/A   Clear
4:15 AM -2.0 °C - -3.0 °C 93% 1028.0 hPa 16.1 km Calm Calm - N/A   Clear
4:35 AM -2.0 °C -4.1 °C -4.0 °C 86% 1028.0 hPa 16.1 km West 5.6 km/h / 1.5 m/s - N/A   Clear
4:55 AM -2.0 °C -4.1 °C -4.0 °C 86% 1028.0 hPa 16.1 km NW 5.6 km/h / 1.5 m/s - N/A   Clear
5:15 AM -2.0 °C - -4.0 °C 86% 1028.0 hPa 16.1 km Calm Calm - N/A   Clear
5:35 AM -2.0 °C - -4.0 °C 86% 1028.3 hPa 16.1 km Calm Calm - N/A   Clear
6:15 AM -3.0 °C - -4.0 °C 93% 1028.3 hPa 16.1 km Calm Calm - N/A   Clear
6:35 AM -3.0 °C - -3.0 °C 100% 1028.3 hPa 16.1 km Calm Calm - N/A   Clear
6:55 AM -3.0 °C - -4.0 °C 93% 1028.3 hPa 14.5 km Calm Calm - N/A   Clear
7:15 AM -3.0 °C - -4.0 °C 93% 1028.7 hPa 11.3 km Calm Calm - N/A   Clear
7:35 AM -2.0 °C - -4.0 °C 86% 1029.0 hPa 12.9 km Calm Calm - N/A   Clear
7:55 AM -2.0 °C - -3.0 °C 93% 1029.0 hPa 12.9 km Calm Calm - N/A   Clear
8:15 AM -1.0 °C - -3.0 °C 86% 1029.3 hPa 16.1 km Calm Calm - N/A   Clear
8:35 AM -1.0 °C -3.0 °C -2.0 °C 93% 1029.7 hPa 16.1 km WSW 5.6 km/h / 1.5 m/s - N/A   Clear
8:55 AM 0.0 °C - -2.0 °C 87% 1029.7 hPa 16.1 km Calm Calm - N/A   Clear
9:15 AM 1.0 °C - -2.0 °C 81% 1030.0 hPa 16.1 km Calm Calm - N/A   Clear
9:35 AM 2.0 °C - -1.0 °C 81% 1030.0 hPa 16.1 km Calm Calm - N/A   Clear
9:55 AM 3.0 °C 1.6 °C -1.0 °C 75% 1030.4 hPa 16.1 km South 5.6 km/h / 1.5 m/s - N/A   Clear
10:15 AM 3.0 °C - -1.0 °C 75% 1030.4 hPa 16.1 km Calm Calm - N/A   Partly Cloudy
10:55 AM 4.0 °C - -1.0 °C 70% 1030.0 hPa 16.1 km Calm Calm - N/A   Clear
11:15 AM 4.0 °C 2.1 °C -1.0 °C 70% 1030.0 hPa 16.1 km WSW 7.4 km/h / 2.1 m/s - N/A   Clear
11:35 AM 5.0 °C 2.5 °C 0.0 °C 70% 1029.3 hPa 16.1 km WSW 11.1 km/h / 3.1 m/s - N/A   Clear
11:55 AM 4.0 °C - -2.0 °C 65% 1029.0 hPa 16.1 km Calm Calm - N/A   Clear
12:15 PM 5.0 °C 3.3 °C -5.0 °C 49% 1028.3 hPa 16.1 km WSW 7.4 km/h / 2.1 m/s - N/A   Clear
12:35 PM 6.0 °C 4.0 °C -6.0 °C 42% 1028.0 hPa 16.1 km West 9.3 km/h / 2.6 m/s - N/A   Clear
12:55 PM 6.0 °C 5.0 °C -5.0 °C 46% 1027.7 hPa 16.1 km SSW 5.6 km/h / 1.5 m/s - N/A   Clear
1:15 PM 7.0 °C 5.2 °C -4.0 °C 46% 1027.3 hPa 16.1 km SSW 9.3 km/h / 2.6 m/s - N/A   Clear
1:35 PM 7.0 °C 4.9 °C -6.0 °C 39% 1027.3 hPa 16.1 km SW 11.1 km/h / 3.1 m/s - N/A   Clear
2:15 PM 8.0 °C 6.1 °C -5.0 °C 40% 1027.0 hPa 16.1 km WSW 11.1 km/h / 3.1 m/s - N/A   Clear
2:35 PM 8.0 °C 6.1 °C -5.0 °C 40% 1026.6 hPa 16.1 km SSW 11.1 km/h / 3.1 m/s - N/A   Clear
2:55 PM 8.0 °C 5.8 °C -7.0 °C 34% 1026.3 hPa 16.1 km South 13.0 km/h / 3.6 m/s - N/A   Clear
3:15 PM 8.0 °C 6.1 °C -7.0 °C 34% 1026.0 hPa 16.1 km South 11.1 km/h / 3.1 m/s - N/A   Clear
3:35 PM 8.0 °C 6.8 °C -7.0 °C 34% 1026.0 hPa 16.1 km SSW 7.4 km/h / 2.1 m/s - N/A   Clear
3:55 PM 8.0 °C 6.8 °C -6.0 °C 37% 1026.0 hPa 16.1 km SSW 7.4 km/h / 2.1 m/s - N/A   Clear
4:15 PM 8.0 °C 6.4 °C -7.0 °C 34% 1025.6 hPa 16.1 km SW 9.3 km/h / 2.6 m/s - N/A   Clear
4:35 PM 8.0 °C 6.8 °C -6.0 °C 37% 1025.6 hPa 16.1 km SW 7.4 km/h / 2.1 m/s - N/A   Clear
4:55 PM 7.0 °C 6.2 °C -6.0 °C 39% 1025.6 hPa 16.1 km SSW 5.6 km/h / 1.5 m/s - N/A   Clear
5:15 PM 7.0 °C 6.2 °C -6.0 °C 39% 1025.3 hPa 16.1 km SSW 5.6 km/h / 1.5 m/s - N/A   Clear
5:35 PM 5.0 °C - -6.0 °C 45% 1024.9 hPa 16.1 km Calm Calm - N/A   Clear
5:55 PM 5.0 °C - -6.0 °C 45% 1024.9 hPa 16.1 km Calm Calm - N/A   Clear
6:15 PM 4.0 °C 2.1 °C -6.0 °C 49% 1024.9 hPa 16.1 km SSE 7.4 km/h / 2.1 m/s - N/A   Clear
6:35 PM 3.0 °C 0.5 °C -5.0 °C 56% 1024.9 hPa 16.1 km SSE 9.3 km/h / 2.6 m/s - N/A   Clear
6:55 PM 3.0 °C 0.0 °C -6.0 °C 52% 1024.9 hPa 16.1 km South 11.1 km/h / 3.1 m/s - N/A   Clear
7:35 PM 4.0 °C 2.1 °C -6.0 °C 49% 1024.9 hPa 16.1 km South 7.4 km/h / 2.1 m/s - N/A   Clear
7:55 PM 3.0 °C 1.0 °C -6.0 °C 52% 1024.6 hPa 16.1 km South 7.4 km/h / 2.1 m/s - N/A   Clear
8:15 PM 2.0 °C -0.7 °C -5.0 °C 60% 1024.3 hPa 16.1 km SSE 9.3 km/h / 2.6 m/s - N/A   Clear
8:35 PM 3.0 °C 0.0 °C -5.0 °C 56% 1023.9 hPa 16.1 km SSE 11.1 km/h / 3.1 m/s - N/A   Clear
8:55 PM 3.0 °C -0.3 °C -5.0 °C 56% 1023.9 hPa 16.1 km SSE 13.0 km/h / 3.6 m/s - N/A   Clear
9:35 PM 2.0 °C -1.2 °C -5.0 °C 60% 1023.2 hPa 16.1 km SSE 11.1 km/h / 3.1 m/s - N/A   Clear
9:55 PM 3.0 °C -0.3 °C -5.0 °C 56% 1023.2 hPa 16.1 km SSE 13.0 km/h / 3.6 m/s - N/A   Clear
10:35 PM 3.0 °C -0.7 °C -5.0 °C 56% 1022.6 hPa 16.1 km SSE 14.8 km/h / 4.1 m/s - N/A   Clear
10:55 PM 2.0 °C -1.5 °C -5.0 °C 60% 1022.6 hPa 16.1 km SSE 13.0 km/h / 3.6 m/s - N/A   Clear
11:15 PM 2.0 °C -1.5 °C -5.0 °C 60% 1022.2 hPa 16.1 km South 13.0 km/h / 3.6 m/s - N/A   Clear
11:35 PM 2.0 °C -1.2 °C -5.0 °C 60% 1022.2 hPa 16.1 km South 11.1 km/h / 3.1 m/s - N/A   Clear
11:55 PM 3.0 °C 0.5 °C -6.0 °C 52% 1021.9 hPa 16.1 km South 9.3 km/h / 2.6 m/s - N/A   Clear